Current Version              Previous Version:    01  02  03  04  05  06  07  08  09  10  11  12  13  14  15  16  17  18  19  20  21  22  23  24  25  26  27  28  29  30  
   31  32  33  34  35  36  37  38  39  40  41  42  43  44  45  46  47  48  49  50  51  52  53  54  55  56  57  58  59  60  

[Printable]
904
ASUS44 KEWX 230202
RWRTX
SOUTH TEXAS REGIONAL WEATHER ROUNDUP
NATIONAL WEATHER SERVICE AUSTIN/SAN ANTONIO TX
900 PM CDT TUE JUL 22 2014

NOTE: "FAIR" INDICATED FEW OR NO CLOUDS BELOW 12,000 FEET WITH NO
SIGNIFICANT WEATHER AND/OR OBSTRUCTIONS TO VISIBILITY.

* - THESE STATIONS ARE NOT NWS OR FAA STATIONS...AND ARE NOT SUBJECT
    TO NWS AND FAA QUALITY CONTROL.

TXZ171-172-183>190-230300-
TEXAS HILL COUNTRY AND EDWARDS PLATEAU

CITY           SKY/WX    TMP DP  RH WIND       PRES   REMARKS
JUNCTION       FAIR      88  64  44 NE7       30.04R
*LLANO         FAIR      88  70  55 SE3       30.06R HX  92
BURNET         FAIR      87  67  51 CALM      30.06R HX  90
*HORSESHOE BAY FAIR      87  64  46 CALM      30.03R
*KERRVILLE     FAIR      89  60  37 SE7       30.05S
*FREDERICKSBRG FAIR      88  62  41 SE3       30.06R
*ROCKSPRINGS   FAIR      88  59  37 SE6       30.09R
*BOERNE STAGE  FAIR      84  61  45 CALM      30.05R
*CASTROVILLE   FAIR      89  63  41 NE3       30.01R HX  90
HONDO          FAIR      86  67  52 E7        30.02R
*UVALDE        FAIR      88  68  51 E3        30.00R HX  91
DEL RIO        FAIR      94  59  31 E12       29.96R HX  93
LAUGHLIN AFB   NOT AVBL
CARRIZO SPRGS  FAIR      91  70  49 CALM      29.94R HX  97
$$

TXZ173-191>194-202-209-217>225-228-230300-
CENTRAL AND SOUTH CENTRAL TEXAS

CITY           SKY/WX    TMP DP  RH WIND       PRES   REMARKS
GEORGETOWN     CLEAR     90  72  55 CALM      30.01R HX  96
AUSTIN/BERGSTM FAIR      89  71  55 VRB6      29.99R HX  95
AUSTIN/MABRY   FAIR      89  69  51 E3        30.01R HX  93
*AUSTIN/EXEC   FAIR      86  72  62 E3        30.01R HX  92
*LAGO VISTA    FAIR      85  66  53 E3        30.04S
SAN MARCOS     FAIR      88  66  48 NE5       30.01R HX  90
NEW BRAUNFELS  FAIR      86  66  51 E3        29.98R
RANDOLPH AFB   FAIR      88  62  40 E3        30.00R
PT SAN ANTONIO PTCLDY    88  68  51 NE5       29.98S HX  91
SAN ANTONIO    FAIR      88  65  46 SE5       30.00R HX  90
STINSON FIELD  FAIR      90  66  45 NE3       29.97R HX  92
*PLEASANTON    FAIR      88  68  51 N3        29.97R HX  91
*LA GRANGE     FAIR      90  74  58 CALM      29.97S HX  98
*GIDDINGS      FAIR      84  73  68 CALM      30.03S HX  90
*GONZALES      FAIR      90  69  48 E3        29.97R HX  94
$$

TXZ163>164-176>182-195>201-210>213-226-227-235-230300-
SOUTHEAST TEXAS

CITY           SKY/WX    TMP DP  RH WIND       PRES   REMARKS
COLLEGE STN    FAIR      87  73  62 NE5       30.00R HX  94
*BRYAN         FAIR      84  76  75 CALM      30.00R HX  93
*CALDWELL      FAIR      86  75  70 CALM      30.03R HX  95
*CROCKETT      FAIR      84  77  79 NE3       30.05R HX  94
*BRENHAM       FAIR      87  73  63 CALM      30.00R HX  94
HUNTSVILLE     FAIR      83  76  79 E3        30.01R HX  91
CONROE         FAIR      82  77  84 CALM      30.01R HX  90
HOUSTON BUSH   FAIR      87  76  69 NE12      30.00R HX  97
HOUSTON HOBBY  MOCLDY    81  73  76 S5        30.00R THUNDER
*HOUSTON SW AP MOCLDY    80  76  88 S6        29.99R
PEARLAND       FAIR      83  76  79 S3        30.01R HX  91
HOUSTON HOOKS  FAIR      87  75  67 CALM      30.00R HX  96
ELLINGTON FLD  MOCLDY    84  75  74 VRB2      30.00R THUNDER HX  92
SUGAR LAND     MOCLDY    86  77  74 S8        29.99R HX  97
*HOUSTON EXEC  FAIR      84  77  79 NE3       30.00R HX  94
*CLEVELAND MUN FAIR      82  78  88 CALM      30.01R HX  90
*WHARTON       FAIR      83  74  73 S7        30.00R HX  90
$$

TXZ214>216-236>238-230300-
THE UPPER TEXAS COAST

CITY           SKY/WX    TMP DP  RH WIND       PRES   REMARKS
*ORANGE        FAIR      79  74  84 CALM      30.02R
PORT ARTHUR    MOCLDY    81  76  84 CALM      30.00R
GALVESTON      FAIR      85  77  77 S8        30.01R HX  95
ANGLETON       FAIR      82  77  84 S5        30.00R HX  90
*BAY CITY      FAIR      85  78  79 S3        29.99R HX  95
PALACIOS       FAIR      85  76  74 S8        29.99R HX  94
$$

TXZ229>234-239>247-230300-
TEXAS COASTAL BEND AND RIO GRANDE PLAINS

CITY           SKY/WX    TMP DP  RH WIND       PRES   REMARKS
VICTORIA       FAIR      85  76  74 S8        29.98S HX  94
*BEEVILLE      FAIR      86  74  68 SE10      29.98R HX  94
ROCKPORT       FAIR      84  77  79 S12       29.97R HX  94
*PORT ARANSAS  FAIR      83  79  88 SE9       29.98S HX  93
*PORT LAVACA   FAIR      82  76  84 S6        29.98S
*INGLESIDE     FAIR      85  76  76 SE10      29.98R HX  94
CORPUS CHRISTI FAIR      85  76  74 SE13      29.98R HX  94
CORPUS NAS     FAIR      84  79  85 SE14      29.98R HX  96
*ROBSTOWN      FAIR      85  76  73 SE12      29.98S HX  95
ALICE          FAIR      85  75  72 SE10      29.98R HX  93
KINGSVILLE NAS FAIR      85  79  82 SE15      29.98R HX  98
COTULLA        FAIR      92  68  45 SE3       29.94R HX  96
*FAITH RANCH   FAIR      93  68  43 E7        29.95R HX  97
LAREDO         FAIR      97  65  34 E10       29.94R HX  99
$$

TXZ248>255-230300-
DEEP SOUTH TEXAS

CITY           SKY/WX    TMP DP  RH WIND       PRES   REMARKS
BROWNSVILLE    FAIR      83  77  82 SE10      29.98R HX  92
PORT ISABEL    FAIR      85  77  77 SE14      29.98R HX  95
*SOUTH PADRE     N/A     82  79  89 SE6       29.98S HX  93
HARLINGEN      FAIR      85  76  74 SE12      29.96R HX  94
*HEBBRONVILLE  FAIR      89  73  59 E16G22    29.98R HX  97
MCALLEN        FAIR      88  74  63 SE18      29.96R HX  96
*WESLACO       NOT AVBL
FALFURRIAS     FAIR      83  73  71 E9G18     29.96R
EDINBURG       FAIR      90  73  58 SE16G22   29.95R HX  98
*ZAPATA        FAIR      99  59  27 E10       29.90R HX  98
$$

TXZ213>215-236>238-242>244-246-247-251-254-255-230300-
CMAN STATIONS

STATION/POSITION TIME  TEMP    WIND        PRES    WAVE
                       AIR SEA DIR/SP/G            HT/PER
                 (UTC) (F)     (DEG/KT/KT) (MB)    (FT/S)
SABINE PASS      0100   83 87  230/  2/  4 1016.1
SEA RIM ST PARK  0100   82     240/  4/  4 1016.2
NORTH JETTY/GLS  0100   85 92  220/  8/ 10   N/A
EAGLE POINT      0100   86 91  210/  8/ 12 1015.7
MORGANS POINT    0100   82 90  120/ 17/ 23 1016.7
MISSION/ARANSAS  0100   85     140/ 14     1016.0
PORT O`CONNOR    0100          150/ 12/ 14   N/A
MALAQUITE BEACH  0100   83 86  120/  9/ 11 1014.8
BAFFIN BAY       0100   83 88  130/ 11/ 14 1015.2
PORT ISABEL      0100   83 83  140/  8/ 12 1015.5
$$

GMZ080-GMZ150>470-230300-
OFFSHORE BUOY REPORTS

STATION/POSITION TIME  TEMP    WIND        PRES    WAVE
                       AIR SEA DIR/SP/G            HT/PER
                 (UTC) (F)     (DEG/KT/KT) (MB)    (FT/S)
90 E PT ARANSAS  0200   84 85  150/  8/  8 1016.2    2/ 5
35 NE PT MANSFLD 0100   84 83  130/ 12/ 12 1014.7    1/ 5
200 E PT ISABEL  0100   84 87   CALM  /  2 1016.3    1/ 5
$$